DW5963 Weather Reports


Display with metric or nautical units.
time (UTC)temp
F
wind
direction
speed
MPH
gust
MPH
rain 1hr
in
rain 24hr
in
rain mn
in
humidity
%
barometer
mb
20260510142033 53 360 7.0 0.0 0.00 0.00 0.00 41 1021.6
20260510141533 52 360 7.0 0.0 0.00 0.00 0.00 42 1021.8
20260510141035 52 360 6.0 0.0 0.00 0.00 0.00 42 1021.8
20260510140531 51 360 6.0 0.0 0.00 0.00 0.00 44 1021.9
20260510140030 51 360 6.0 0.0 0.00 0.00 0.00 44 1022.0
20260510135529 51 360 6.0 0.0 0.00 0.00 0.00 44 1022.0
20260510135030 50 360 7.0 0.0 0.00 0.00 0.00 45 1022.1
20260510134528 49 360 7.0 0.0 0.00 0.00 0.00 46 1022.1
20260510134026 49 360 6.0 0.0 0.00 0.00 0.00 47 1022.0
20260510133524 48 360 5.0 0.0 0.00 0.00 0.00 50 1021.9
20260510133024 47 360 4.0 0.0 0.00 0.00 0.00 50 1021.9
20260510132524 47 360 3.0 0.0 0.00 0.00 0.00 51 1021.9
20260510132028 46 360 3.0 0.0 0.00 0.00 0.00 52 1021.9
20260510131523 45 360 2.0 0.0 0.00 0.00 0.00 54 1022.0
20260510131022 45 360 1.0 0.0 0.00 0.00 0.00 55 1022.0
20260510130526 44 360 1.0 0.0 0.00 0.00 0.00 56 1021.9
20260510130022 43 360 2.0 0.0 0.00 0.00 0.00 57 1021.9
20260510125521 42 360 2.0 0.0 0.00 0.00 0.00 59 1021.9
20260510125022 41 360 1.0 0.0 0.00 0.00 0.00 61 1021.9
20260510124527 39 360 1.0 0.0 0.00 0.00 0.00 65 1021.9
20260510124023 38 360 1.0 0.0 0.00 0.00 0.00 67 1021.8
20260510123521 37 360 2.0 0.0 0.00 0.00 0.00 69 1021.8
20260510123020 35 360 1.0 0.0 0.00 0.00 0.00 70 1021.8
20260510122519 33 360 0.0 0.0 0.00 0.00 0.00 71 1021.8
20260510122021 32 360 0.0 0.0 0.00 0.00 0.00 70 1021.7
20260510121518 32 360 0.0 0.0 0.00 0.00 0.00 70 1021.6
20260510121019 31 360 0.0 0.0 0.00 0.00 0.00 70 1021.6
20260510120522 31 360 0.0 0.0 0.00 0.00 0.00 69 1021.5
20260510120025 31 360 0.0 0.0 0.00 0.00 0.00 69 1021.5
20260510115519 31 360 0.0 0.0 0.00 0.00 0.00 68 1021.5
20260510115020 31 360 0.0 0.0 0.00 0.00 0.00 67 1021.4
20260510114525 31 360 0.0 0.0 0.00 0.00 0.00 66 1021.4
20260510114015 31 360 1.0 0.0 0.00 0.00 0.00 66 1021.4
20260510113514 32 360 1.0 0.0 0.00 0.00 0.00 65 1021.4
20260510113013 32 360 1.0 0.0 0.00 0.00 0.00 64 1021.4
20260510112512 33 360 0.0 0.0 0.00 0.00 0.00 62 1021.4
20260510112015 33 360 0.0 0.0 0.00 0.00 0.00 62 1021.4
20260510111510 35 360 0.0 0.0 0.00 0.00 0.00 59 1021.4
20260510111009 35 360 0.0 0.0 0.00 0.00 0.00 59 1021.4
20260510110507 35 360 0.0 0.0 0.00 0.00 0.00 59 1021.4
20260510110006 36 360 1.0 0.0 0.00 0.00 0.00 59 1021.5
20260510105505 36 360 1.0 0.0 0.00 0.00 0.00 58 1021.4
20260510105004 37 360 1.0 0.0 0.00 0.00 0.00 57 1021.5
20260510104502 38 360 1.0 0.0 0.00 0.00 0.00 59 1021.5
20260510104005 38 360 0.0 0.0 0.00 0.00 0.00 57 1021.5
20260510103600 38 360 0.0 0.0 0.00 0.00 0.00 57 1021.5
20260510103105 38 360 0.0 0.0 0.00 0.00 0.00 57 1021.4
20260510102559 39 360 0.0 0.0 0.00 0.00 0.00 57 1021.4
20260510102057 39 360 0.0 0.0 0.00 0.00 0.00 56 1021.3
20260510101600 40 360 1.0 0.0 0.00 0.00 0.00 56 1021.4
20260510100556 40 360 1.0 0.0 0.00 0.00 0.00 56 1021.3
20260510100055 40 360 0.0 0.0 0.00 0.00 0.00 55 1021.3
20260510095555 41 360 0.0 0.0 0.00 0.00 0.00 54 1021.3
20260510095054 41 360 0.0 0.0 0.00 0.00 0.00 54 1021.3
20260510094607 41 360 0.0 0.0 0.00 0.00 0.00 54 1021.3
20260510094054 41 360 0.0 0.0 0.00 0.00 0.00 54 1021.3
20260510093552 41 360 1.0 0.0 0.00 0.00 0.00 53 1021.3
20260510093110 41 360 2.0 0.0 0.00 0.00 0.00 52 1021.3
20260510092550 42 360 2.0 0.0 0.00 0.00 0.00 50 1021.2
20260510092049 43 360 1.0 0.0 0.00 0.00 0.00 49 1021.3
20260510091547 43 360 1.0 0.0 0.00 0.00 0.00 48 1021.1
20260510090546 44 360 2.0 0.0 0.00 0.00 0.00 47 1021.0
20260510090047 45 360 2.0 0.0 0.00 0.00 0.00 46 1021.0
20260510085543 45 360 1.0 0.0 0.00 0.00 0.00 46 1021.0
20260510085043 46 360 0.0 0.0 0.00 0.00 0.00 45 1021.1
20260510084541 46 360 0.0 0.0 0.00 0.00 0.00 44 1021.1
20260510084040 46 360 0.0 0.0 0.00 0.00 0.00 44 1021.1
20260510083540 46 360 0.0 0.0 0.00 0.00 0.00 44 1021.1
20260510083051 47 360 0.0 0.0 0.00 0.00 0.00 44 1021.1
20260510082538 47 360 1.0 0.0 0.00 0.00 0.00 44 1021.1
20260510082038 47 360 1.0 0.0 0.00 0.00 0.00 43 1021.1
20260510081541 47 360 1.0 0.0 0.00 0.00 0.00 42 1021.1
20260510080539 47 360 0.0 0.0 0.00 0.00 0.00 43 1021.0
20260510080036 47 360 0.0 0.0 0.00 0.00 0.00 43 1020.9
20260510075536 47 360 0.0 0.0 0.00 0.00 0.00 43 1020.8
20260510075036 47 360 0.0 0.0 0.00 0.00 0.00 43 1020.9
20260510074535 47 360 2.0 0.0 0.00 0.00 0.00 43 1020.9
20260510074036 47 360 2.0 0.0 0.00 0.00 0.00 43 1020.8
20260510073535 47 360 1.0 0.0 0.00 0.00 0.00 43 1020.8
20260510073040 47 360 2.0 0.0 0.00 0.00 0.00 42 1020.8
20260510072534 47 360 2.0 0.0 0.00 0.00 0.00 43 1020.7
20260510072034 47 360 3.0 0.0 0.00 0.00 0.00 43 1020.6
20260510071537 47 360 3.0 0.0 0.00 0.00 0.00 43 1020.7
20260510070534 48 360 4.0 0.0 0.00 0.00 0.00 42 1020.7
20260510070033 48 360 3.0 0.0 0.00 0.00 0.00 42 1020.6
20260510065532 47 360 3.0 0.0 0.00 0.00 0.00 43 1020.6
20260510065032 47 360 2.0 0.0 0.00 0.00 0.00 44 1020.5
20260510064531 47 360 1.0 0.0 0.00 0.00 0.00 43 1020.5
20260510064028 47 360 0.0 0.0 0.00 0.00 0.00 43 1020.4
20260510063529 47 360 0.0 0.0 0.00 0.00 0.00 43 1020.5
20260510063028 47 360 0.0 0.0 0.00 0.00 0.00 42 1020.6
20260510062528 48 360 0.0 0.0 0.00 0.00 0.00 43 1020.6
20260510062027 48 360 0.0 0.0 0.00 0.00 0.00 43 1020.6
20260510061527 48 360 1.0 0.0 0.00 0.00 0.00 41 1020.6
20260510060530 48 360 1.0 0.0 0.00 0.00 0.00 41 1020.4
20260510060037 48 360 1.0 0.0 0.00 0.00 0.00 41 1020.4
20260510055526 48 360 1.0 0.0 0.00 0.00 0.00 40 1020.4
20260510055026 48 360 1.0 0.0 0.00 0.00 0.00 41 1020.4
20260510054535 48 360 1.0 0.0 0.00 0.00 0.00 41 1020.4
20260510054028 48 360 0.0 0.0 0.00 0.00 0.00 41 1020.5
20260510053525 48 360 1.0 0.0 0.00 0.00 0.00 41 1020.4
20260510053025 48 360 1.0 0.0 0.00 0.00 0.00 41 1020.3
20260510052524 48 360 2.0 0.0 0.00 0.00 0.00 40 1020.3
20260510052024 48 360 2.0 0.0 0.00 0.00 0.00 41 1020.1
20260510051523 48 360 2.0 0.0 0.00 0.00 0.00 42 1020.0
20260510050522 46 360 2.0 0.0 0.00 0.00 0.00 44 1019.9
20260510050022 46 360 2.0 0.0 0.00 0.00 0.00 44 1019.8
20260510045526 46 360 1.0 0.0 0.00 0.00 0.00 45 1019.7
20260510045021 45 360 1.0 0.0 0.00 0.00 0.00 45 1019.6
20260510044519 45 360 1.0 0.0 0.00 0.00 0.00 44 1019.5
20260510044019 45 360 2.0 0.0 0.00 0.00 0.00 44 1019.4
20260510043519 45 360 3.0 0.0 0.00 0.00 0.00 45 1019.2
20260510043022 44 360 3.0 0.0 0.00 0.00 0.00 45 1019.2
20260510042522 44 360 2.0 0.0 0.00 0.00 0.00 44 1019.1
20260510042017 44 360 1.0 0.0 0.00 0.00 0.00 44 1019.1
20260510041520 45 360 0.0 0.0 0.00 0.00 0.00 44 1019.1
20260510040518 45 360 0.0 0.0 0.00 0.00 0.00 45 1018.9
20260510040016 45 360 0.0 0.0 0.00 0.00 0.00 45 1018.9
20260510035516 45 360 0.0 0.0 0.00 0.00 0.00 45 1018.9
20260510035015 45 360 0.0 0.0 0.00 0.00 0.00 46 1018.9
20260510034521 45 360 0.0 0.0 0.00 0.00 0.00 45 1018.7
20260510034015 44 360 1.0 0.0 0.00 0.00 0.00 46 1018.6
20260510033517 44 360 1.0 0.0 0.00 0.00 0.00 45 1018.5
20260510033014 44 360 0.0 0.0 0.00 0.00 0.00 45 1018.5
20260510032513 44 360 1.0 0.0 0.00 0.00 0.00 44 1018.4
20260510032013 45 360 1.0 0.0 0.00 0.00 0.00 43 1018.3
20260510031514 46 360 2.0 0.0 0.00 0.00 0.00 42 1018.3
20260510030516 47 360 4.0 0.0 0.00 0.00 0.00 41 1018.1
20260510030017 48 360 5.0 0.0 0.00 0.00 0.00 41 1017.8
20260510025513 48 360 4.0 0.0 0.00 0.00 0.00 40 1017.8
20260510025011 48 360 5.0 0.0 0.00 0.00 0.00 39 1017.7
20260510024509 49 360 5.0 0.0 0.00 0.00 0.00 39 1017.7
20260510024009 50 360 5.0 0.0 0.00 0.00 0.00 38 1017.6
20260510023507 50 360 6.0 0.0 0.00 0.00 0.00 38 1017.5
20260510023006 52 360 6.0 0.0 0.00 0.00 0.00 36 1017.4
20260510022506 53 360 6.0 0.0 0.00 0.00 0.00 36 1017.3
20260510022005 53 360 6.0 0.0 0.00 0.00 0.00 36 1017.2
20260510021505 54 360 6.0 0.0 0.00 0.00 0.00 35 1017.1
20260510020508 56 360 7.0 0.0 0.00 0.00 0.00 34 1017.0
20260510020005 56 360 8.0 0.0 0.00 0.00 0.00 33 1016.9
20260510015506 57 360 9.0 0.0 0.00 0.00 0.00 33 1016.8
20260510015004 57 360 9.0 0.0 0.00 0.00 0.00 33 1016.8
20260510014504 58 360 9.0 0.0 0.00 0.00 0.00 33 1016.7
20260510014004 58 360 8.0 0.0 0.00 0.00 0.00 32 1016.7
20260510013505 59 360 9.0 0.0 0.00 0.00 0.00 32 1016.7
20260510013007 59 360 11.0 0.0 0.00 0.00 0.00 31 1016.7
20260510012503 60 360 12.0 0.0 0.00 0.00 0.00 31 1016.6
20260510012003 60 360 12.0 0.0 0.00 0.00 0.00 30 1016.6
20260510011506 61 360 13.0 0.0 0.00 0.00 0.00 30 1016.7
20260510010504 61 360 12.0 0.0 0.00 0.00 0.00 30 1016.5
20260510010005 62 360 11.0 0.0 0.00 0.00 0.00 30 1016.5
20260510005502 62 360 11.0 0.0 0.00 0.00 0.00 30 1016.5
20260510005004 62 360 11.0 0.0 0.00 0.00 0.00 30 1016.5
20260510004501 62 360 11.0 0.0 0.00 0.00 0.00 30 1016.4
20260510004003 62 360 13.0 0.0 0.00 0.00 0.00 30 1016.4
20260510003502 62 360 13.0 0.0 0.00 0.00 0.00 30 1016.3
20260510003002 62 360 13.0 0.0 0.00 0.00 0.00 30 1016.3
20260510002502 63 360 13.0 0.0 0.00 0.00 0.00 30 1016.2
20260510002001 63 360 13.0 0.0 0.00 0.00 0.00 30 1016.2
20260510001501 64 360 13.0 0.0 0.00 0.00 0.00 29 1016.2
20260510000501 64 360 13.0 0.0 0.00 0.00 0.00 29 1016.2
20260510000001 64 360 13.0 0.0 0.00 0.00 0.00 28 1016.2
20260509235501 64 360 14.0 0.0 0.00 0.00 0.00 28 1016.2
20260509235002 64 360 15.0 0.0 0.00 0.00 0.00 28 1016.0
20260509234502 64 360 14.0 0.0 0.00 0.00 0.00 28 1016.0
20260509234000 64 360 14.0 0.0 0.00 0.00 0.00 28 1016.1
20260509233601 65 360 15.0 0.0 0.00 0.00 0.00 28 1016.0
20260509233100 64 360 13.0 0.0 0.00 0.00 0.00 30 1015.8
20260509232600 63 360 12.0 0.0 0.00 0.00 0.00 30 1015.8
20260509232100 64 360 12.0 0.0 0.00 0.00 0.00 30 1015.9
20260509231605 65 360 13.0 0.0 0.00 0.00 0.00 29 1015.8
20260509230559 65 360 12.0 0.0 0.00 0.00 0.00 29 1015.7
20260509225559 65 360 14.0 0.0 0.00 0.00 0.00 29 1015.7
20260509225059 66 360 14.0 0.0 0.00 0.00 0.00 29 1015.7
20260509224602 65 360 13.0 0.0 0.00 0.00 0.00 30 1015.7
20260509224059 65 360 13.0 0.0 0.00 0.00 0.00 30 1015.8
20260509223559 64 360 16.0 0.0 0.00 0.00 0.00 31 1015.9
20260509223059 65 360 14.0 0.0 0.00 0.00 0.00 29 1015.9
20260509222700 65 360 12.0 0.0 0.00 0.00 0.00 29 1015.7
20260509222058 65 360 12.0 0.0 0.00 0.00 0.00 30 1015.8
20260509221600 65 360 13.0 0.0 0.00 0.00 0.00 28 1015.9
20260509220557 65 360 14.0 0.0 0.00 0.00 0.00 31 1015.7
20260509220107 65 360 14.0 0.0 0.00 0.00 0.00 30 1015.9
20260509215559 65 360 12.0 0.0 0.00 0.00 0.00 30 1016.0
20260509215058 65 360 12.0 0.0 0.00 0.00 0.00 30 1015.9
20260509214601 65 360 13.0 0.0 0.00 0.00 0.00 31 1016.2
20260509214057 64 360 13.0 0.0 0.00 0.00 0.00 31 1016.1
20260509213600 64 360 12.0 0.0 0.00 0.00 0.00 32 1016.2
20260509213122 63 360 12.0 0.0 0.00 0.00 0.00 33 1016.2
20260509212559 62 360 12.0 0.0 0.00 0.00 0.00 33 1016.2
20260509212057 64 360 12.0 0.0 0.00 0.00 0.00 31 1016.2
20260509211554 64 360 13.0 0.0 0.00 0.00 0.00 32 1016.0
20260509210554 64 360 13.0 0.0 0.00 0.00 0.00 32 1016.1
20260509210104 63 360 12.0 0.0 0.00 0.00 0.00 33 1016.2
20260509205553 62 360 12.0 0.0 0.00 0.00 0.00 34 1016.2
20260509205053 62 360 12.0 0.0 0.00 0.00 0.00 34 1016.3
20260509204553 64 360 12.0 0.0 0.00 0.00 0.00 32 1016.3
20260509204053 63 360 14.0 0.0 0.00 0.00 0.00 32 1016.4
20260509203553 64 360 14.0 0.0 0.00 0.00 0.00 32 1016.4
20260509203052 63 360 14.0 0.0 0.00 0.00 0.00 33 1016.3
20260509202552 62 360 13.0 0.0 0.00 0.00 0.00 35 1016.4
20260509202052 62 360 13.0 0.0 0.00 0.00 0.00 34 1016.4
20260509201552 63 360 15.0 0.0 0.00 0.00 0.00 33 1016.5
20260509200554 62 360 13.0 0.0 0.00 0.00 0.00 34 1016.5
20260509200100 63 360 15.0 0.0 0.00 0.00 0.00 34 1016.6
20260509195553 62 360 14.0 0.0 0.00 0.00 0.00 35 1016.5
20260509195055 63 360 14.0 0.0 0.00 0.00 0.00 34 1016.5
20260509194550 63 360 14.0 0.0 0.00 0.00 0.00 34 1016.5
20260509194049 63 360 13.0 0.0 0.00 0.00 0.00 35 1016.5
20260509193549 62 360 14.0 0.0 0.00 0.00 0.00 35 1016.5
20260509193049 62 360 12.0 0.0 0.00 0.00 0.00 36 1016.5
20260509192550 61 360 11.0 0.0 0.00 0.00 0.00 36 1016.4
20260509192048 62 360 11.0 0.0 0.00 0.00 0.00 37 1016.5
20260509191548 62 360 10.0 0.0 0.00 0.00 0.00 36 1016.5
20260509190546 61 360 11.0 0.0 0.00 0.00 0.00 38 1016.6
20260509190046 60 360 10.0 0.0 0.00 0.00 0.00 38 1016.5
20260509185545 61 360 10.0 0.0 0.00 0.00 0.00 39 1016.5
20260509185045 60 360 10.0 0.0 0.00 0.00 0.00 39 1016.5
20260509184552 59 360 9.0 0.0 0.00 0.00 0.00 39 1016.6
20260509184043 59 360 10.0 0.0 0.00 0.00 0.00 39 1016.6
20260509183544 60 360 12.0 0.0 0.00 0.00 0.00 40 1016.7
20260509183043 59 360 10.0 0.0 0.00 0.00 0.00 40 1016.6
20260509182541 58 360 10.0 0.0 0.00 0.00 0.00 41 1016.6
20260509182040 58 360 11.0 0.0 0.00 0.00 0.00 42 1016.6
20260509181552 58 360 12.0 0.0 0.00 0.00 0.00 40 1016.5
20260509180540 58 360 12.0 0.0 0.00 0.00 0.00 40 1016.5
20260509180046 57 360 12.0 0.0 0.00 0.00 0.00 41 1016.6
20260509175539 57 360 11.0 0.0 0.00 0.00 0.00 42 1016.6
20260509175039 57 360 10.0 0.0 0.00 0.00 0.00 42 1016.6
20260509174537 57 360 9.0 0.0 0.00 0.00 0.00 44 1016.7
20260509174036 56 360 8.0 0.0 0.00 0.00 0.00 44 1016.7
20260509173536 56 360 9.0 0.0 0.00 0.00 0.00 45 1016.7
20260509173040 56 360 10.0 0.0 0.00 0.00 0.00 44 1016.8
20260509172537 56 360 9.0 0.0 0.00 0.00 0.00 46 1016.6
20260509172035 56 360 10.0 0.0 0.00 0.00 0.00 46 1016.6
20260509171537 56 360 10.0 0.0 0.00 0.00 0.00 45 1016.7
20260509170533 54 360 11.0 0.0 0.00 0.00 0.00 46 1016.6
20260509170042 55 360 12.0 0.0 0.00 0.00 0.00 45 1016.6
20260509165532 54 360 9.0 0.0 0.00 0.00 0.00 47 1016.6
20260509165031 54 360 9.0 0.0 0.00 0.00 0.00 49 1016.6
20260509164537 54 360 9.0 0.0 0.00 0.00 0.00 48 1016.7
20260509164032 54 360 9.0 0.0 0.00 0.00 0.00 50 1016.6
20260509163529 54 360 10.0 0.0 0.00 0.00 0.00 52 1016.6
20260509163032 53 360 10.0 0.0 0.00 0.00 0.00 51 1016.6
20260509162528 53 360 9.0 0.0 0.00 0.00 0.00 53 1016.6
20260509162026 53 360 7.0 0.0 0.00 0.00 0.00 55 1016.6
20260509161532 52 360 5.0 0.0 0.00 0.00 0.00 59 1016.6
20260509160526 51 360 3.0 0.0 0.00 0.00 0.00 64 1016.6
20260509160031 50 360 6.0 0.0 0.00 0.00 0.00 63 1016.6
20260509155524 50 360 8.0 0.0 0.00 0.00 0.00 63 1016.7
20260509155023 50 360 8.0 0.0 0.00 0.00 0.00 64 1016.6
20260509154522 50 360 8.0 0.0 0.00 0.00 0.00 67 1016.5
20260509154022 49 360 5.0 0.0 0.00 0.00 0.00 68 1016.5
20260509153523 49 360 5.0 0.0 0.00 0.00 0.00 68 1016.6
20260509153019 49 360 7.0 0.0 0.00 0.00 0.00 68 1016.6
20260509152518 48 360 7.0 0.0 0.00 0.00 0.00 68 1016.5
20260509152018 48 360 7.0 0.0 0.00 0.00 0.00 70 1016.6
20260509151517 48 360 7.0 0.0 0.00 0.00 0.00 72 1016.5
20260509150517 47 360 7.0 0.0 0.00 0.00 0.00 73 1016.4
20260509150015 47 360 7.0 0.0 0.00 0.00 0.00 74 1016.5
20260509145515 47 360 7.0 0.0 0.00 0.00 0.00 75 1016.5
20260509145013 46 360 6.0 0.0 0.00 0.00 0.00 76 1016.4
20260509144511 46 360 6.0 0.0 0.00 0.00 0.00 78 1016.3
20260509144010 45 360 6.0 0.0 0.00 0.00 0.00 78 1016.3
20260509143509 45 360 6.0 0.0 0.00 0.00 0.00 79 1016.3
20260509143009 45 360 5.0 0.0 0.00 0.00 0.00 80 1016.3